EHI
0 0 0 0 0 0 0 0 0 0 0 0 0 0 0 0 0 0 0 0 0 0 0 0 0 0 0 0 0 0 0 0 0 0 0 0 0 0 0 0 0 0 0 0
0 0 0 0 0 0 0 0 0 0 0 0 0 0 0 0 0 0 0 0 0 0 0 0 0 0 0 0 0 0 0 0 0 0 0 0 0 0 0 0 0 0 0 0
0 0 0 0 0 0 0 0 0 0 0 0 0 0 0 0 0 0 0 0 0 0 0 0 0 0 0 0 0 0 0 0 0 0 0 0 0 0 0 0 0 0 0 0
0 0 0 0 0 0 0 0 0 0 0 0 0 0 0 0 0 0 0 0 0 0 0 0 0 0 0 0 0 0 0 0 0 0 0 0 0 0 0 0 0 0 0 0
0 0 0 0 0 0 0 0 0 0 0 0 0 0 0 0 0 0 0 0 0 0 0 0 0 0 0 0 0 0 0 0 0 0 0 0 0 0 0 0 0 0 0 0
0 0 0 0 0 0 0 0 0 0 0 0 0 0 0 0 0 0 0 0 0 0 0 0 0 0 0 0 0 0 0 0 0 0 0 0 0 0 0 0 0 0 0 0
0 0 0 0 0 0 0 0 0 0 0 0 0 0 0 0 0 0 0 0 0 0 0 0 0 0 0 0 0 0 0 0 0 0 0 0 0 0 0 0 0 0 0 0
0 0 0 0 0 0 0 0 0 0 0 0 0 0 0 0 0 0 0 0 0 0 0 0 0 0 0 0 0 0 0 0 0 0 0 0 0 0 0 0 0 0 0 0
0 0 0 0 0 0 0 0 0 0 0 0 0 0 0 0 0 0 0 0 0 0 0 0 0 0 0 0 0 0 0 0 0 0 0 0 0 0 0 0 0 0 0 0
0 0 0 0 0 0 0 0 0 0 0 0 0 0 0 0 0 0 0 0 0 0 0 0 0 0 0 0 0 0 0 0 0 0 0 0 0 0 0 0 0 0 0 0
0 0 0 0 0 0 0 0 0 0 0 0 0 0 0 0 0 0 0 0 0 0 0 0 0 0 0 0 0 0 0 0 0 0 0 0 0 0 0 0 0 0 0 0
0 0 0 0 0 0 0 0 0 0 0 0 0 0 0 0 0 0 0 0 0 0 0 0 0 0 0 0 0 0 0 0 0 0 0 0 0 0 0 0 0 0 0 0
0 0 0 0 0 0 0 0 0 0 0 0 0 0 0 0 0 0 0 0 0 0 0 0 0 0 0 0 0 0 0 0 0 0 0 0 0 0 0 0 0 0 0 0
0 0 0 0 0 0 0 0 0 0 0 0 0 0 0 0 0 0 0 0 0 0 0 0 0 0 0 0 0 0 0 0 0 0 0 0 0 0 0 0 0 0 0 0
0 0 0 0 0 0 0 0 0 0 0 0 0 0 0 0 0 0 0 0 0 0 0 0 0 0 0 0 0 0 0 0 0 0 0 0 0 0 0 0 0 0 0 0
0 0 0 0 0 0 0 0 0 0 0 0 0 0 0 0 0 0 0 0 0 0 0 0 0 0 0 0 0 0 0 0 0 0 0 0 0 0 0 0 0 0 0 0
0 0 0 0 0 0 0 0 0 0 0 0 0 0 0 0 0 0 0 0 0 0 0 0 0 0 0 0 0 0 0 0 0 0 0 0 0 0 0 0 0 0 0 0
0 0 0 0 0 0 0 0 0 0 0 0 0 0 0 0 0 0 0 0 0 0 0 0 0 0 0 0 0 0 0 0 0 0 0 0 0 0 0 0 0 0 0 0
0 0 0 0 0 0 0 0 0 0 0 0 0 0 0 0 0 0 0 0 0 0 0 0 0 0 0 0 0 0 0 0 0 0 0 0 0 0 0 0 0 0 0 0
0 0 0 0 0 0 0 0 0 0 0 0 0 0 0 0 0 0 0 0 0 0 0 0 0 0 0 0 0 0 0 0 0 0 0 0 0 0 0 0 0 0 0 0
0 0 0 0 0 0 0 0 0 0 0 0 0 0 0 0 0 0 0 0 0 0 0 0 0 0 0 0 0 0 0 0 0 0 0 0 0 0 0 0 0 0 0 0
0 0 0 0 0 0 0 0 0 0 0 0 0 0 0 0 0 0 0 0 0 0 0 0 0 0 0 0 0 0 0 0 0 0 0 0 0 0 0 0 0 0 0 0
0 0 0 0 0 0 0 0 0 0 0 0 0 0 0 0 0 0 0 0 0 0 0 0 0 0 0 0 0 0 0 0 0 0 0 0 0 0 0 0 0 0 0 0
0 0 0 0 0 0 0 0 0 0 0 0 0 0 0 0 0 0 0 0 0 0 0 0 0 0 0 0 0 0 0 0 0 0 0 0 0 0 0 0 0 0 0 0
0 0 0 0 0 0 0 0 0 0 0 0 0 0 0 0 0 0 0 0 0 0 0 0 0 0 0 0 0 0 0 0 0 0 0 0 0 0 0 0 0 0 0 0
0 0 0 0 0 0 0 0 0 0 0 0 0 0 0 0 0 0 0 0 0 0 0 0 0 0 0 0 0 0 0 0 0 0 0 0 0 0 0 0 0 0 0 0
0 0 0 0 0 0 0 0 0 0 0 0 0 0 0 0 0 0 0 0 0 0 0 0 0 0 0 0 0 0 0 0 0 0 0 0 0 0 0 0 0 0 0 0
Wind_Speed
4 4 2 3 3 4 5 6 7 7 5 6 9 10 11 11 12 11 10 9 8 6 5 5 5 5 5 5 5 6 7 7 7 6 7 7 8 8 8 8 8 7 8 8
3 2 1 3 4 3 4 4 4 3 4 2 8 10 11 12 13 12 10 10 8 7 6 6 6 5 5 5 4 5 6 6 6 6 6 6 6 7 7 7 7 8 8 8
3 4 2 4 3 2 2 2 4 5 4 8 9 11 13 13 12 11 11 10 9 8 6 6 5 5 4 4 4 5 5 5 5 5 5 5 6 7 7 6 7 7 7 7
1 3 2 5 1 1 1 2 1 2 5 8 8 8 7 8 11 11 11 11 9 8 7 5 5 5 4 4 4 5 5 5 5 5 6 6 6 6 5 5 5 5 6 6
2 0 5 4 1 0 1 2 1 6 9 9 11 8 4 5 8 9 9 9 8 7 7 6 6 5 5 5 4 4 5 4 4 5 5 5 5 5 4 4 5 5 5 6
2 1 4 4 3 1 2 3 1 7 12 12 9 5 4 8 10 11 10 9 8 8 7 7 5 5 6 5 4 4 4 4 4 5 5 5 4 4 3 4 4 5 6 6
2 3 5 3 5 1 0 4 2 7 11 10 5 4 9 12 11 11 10 10 9 9 7 6 5 6 6 5 4 3 4 5 5 4 4 4 4 3 4 4 5 5 6 6
2 2 5 4 3 0 3 0 4 7 7 7 8 11 12 13 13 12 11 10 9 8 7 5 5 6 6 4 3 4 5 5 5 4 3 4 5 4 4 4 5 4 4 5
4 5 4 2 2 3 1 3 4 7 9 11 11 12 12 12 12 11 11 9 7 8 7 5 5 6 6 4 4 5 5 5 4 4 4 3 4 4 3 3 3 3 3 3
3 4 2 3 2 2 2 3 6 10 11 11 12 13 13 12 11 10 9 8 7 8 7 5 4 5 5 4 5 6 6 4 4 4 4 4 3 3 3 2 2 2 2 2
3 3 2 3 3 3 6 9 11 10 9 11 15 14 13 12 11 9 8 6 7 8 7 6 5 5 5 5 6 6 5 4 4 4 4 4 4 3 2 1 1 2 2 2
4 3 2 2 1 4 7 9 11 12 10 10 12 13 12 11 9 9 8 7 7 7 7 6 6 5 4 5 6 6 4 3 3 3 3 3 3 3 5 3 3 3 4 3
3 0 1 2 3 4 6 8 9 11 12 12 10 11 12 10 8 8 8 9 8 8 7 6 6 5 4 5 5 5 4 3 2 2 2 2 1 2 2 3 5 4 2 2
1 2 2 1 3 6 9 10 10 11 10 11 11 11 10 9 9 9 9 8 8 8 7 6 6 5 4 5 5 4 3 3 3 2 2 2 1 1 1 1 1 2 2 1
2 2 4 5 8 9 10 12 13 12 11 10 10 11 11 11 10 9 7 7 8 7 6 6 6 4 4 5 5 4 3 2 2 2 2 2 1 1 1 1 0 1 1 2
3 5 7 9 11 11 11 12 13 12 11 10 10 10 10 10 9 8 8 8 8 7 6 6 5 4 4 4 4 3 2 3 3 2 2 2 1 1 1 1 1 1 2 2
6 6 7 9 11 11 10 10 12 12 11 11 11 10 10 10 9 8 7 6 7 6 6 6 5 4 4 4 4 2 2 2 3 2 2 2 2 2 2 2 2 2 2 2
7 8 10 13 13 12 11 10 11 12 11 10 11 11 11 11 10 8 7 6 6 4 4 5 4 4 4 3 3 2 2 2 2 2 2 2 2 2 2 2 2 3 2 2
6 7 8 10 12 12 12 11 11 11 11 11 12 11 10 9 8 8 7 7 7 5 4 4 6 5 4 4 4 2 2 2 2 2 2 2 2 2 2 2 3 3 3 2
5 7 9 11 11 10 11 11 11 10 10 11 11 10 9 8 8 8 7 6 6 5 5 5 5 4 4 4 5 2 3 3 3 2 2 2 2 2 3 3 3 3 3 3
7 9 11 12 11 10 11 12 12 12 11 11 12 11 10 8 8 8 7 5 5 4 5 7 5 4 4 4 5 3 3 3 3 2 2 2 3 3 3 3 4 4 4 4
7 9 11 11 11 10 10 10 11 12 11 11 10 10 10 9 8 7 7 6 6 7 5 4 4 5 6 5 3 3 3 3 3 3 3 3 3 4 4 4 4 4 4 4
6 8 11 12 12 11 10 10 11 12 12 12 12 11 10 9 8 8 6 5 5 8 6 5 6 9 8 5 3 4 4 4 4 4 4 4 4 4 5 5 5 5 5 5
5 8 9 9 10 11 11 11 10 9 10 10 10 11 10 8 6 6 5 8 10 10 7 7 10 10 9 4 4 4 4 4 4 4 5 4 5 5 5 5 6 6 6 7
5 7 8 10 11 10 10 10 9 8 9 7 8 9 9 8 7 7 6 7 10 10 6 8 11 11 7 5 6 5 5 5 5 5 5 5 5 5 6 6 6 6 6 7
5 6 8 9 9 8 8 9 8 8 8 7 7 7 7 6 7 6 6 8 10 10 8 6 7 8 7 7 7 7 6 6 6 6 6 6 7 6 6 6 8 7 7 7
3 4 4 4 4 6 8 9 9 9 9 9 8 7 8 7 7 7 8 7 8 8 7 7 7 7 7 7 7 7 7 6 6 6 6 6 6 7 7 8 7 7 7 7
Wind_Direction
239 245 219 232 239 204 196 199 205 240 232 216 180 161 148 143 141 140 139 137 132 122 112 103 95 85 79 72 65 70 75 73 68 63 63 62 62 61 59 58 61 61 63 59
320 309 278 259 256 239 227 214 221 241 254 159 135 133 142 149 150 149 147 142 137 132 125 118 111 102 91 80 73 76 79 78 76 72 66 64 65 66 64 58 56 59 57 59
296 311 348 293 260 214 226 228 199 219 206 139 142 153 157 158 156 154 150 145 142 140 136 129 122 115 103 92 83 81 81 82 84 83 78 71 74 70 66 59 58 57 52 57
303 9 278 261 296 165 178 288 224 143 137 148 142 130 133 149 151 148 147 146 143 139 133 126 119 111 104 97 94 92 87 85 85 86 82 75 73 70 65 61 60 56 51 52
119 287 289 309 2 152 180 300 150 132 125 116 115 97 95 127 135 140 141 138 136 134 129 125 122 119 111 101 98 95 96 96 96 98 94 86 81 74 68 71 65 57 52 51
129 186 261 281 319 264 98 313 151 142 142 141 134 136 165 145 129 126 126 127 128 124 119 120 120 117 108 106 103 103 105 101 96 97 97 93 87 76 70 78 74 70 60 48
171 227 268 295 304 347 102 269 168 150 151 149 146 148 138 133 127 127 128 128 127 125 125 129 128 117 110 110 113 115 106 98 91 91 97 97 84 74 84 85 78 70 65 50
157 212 264 332 354 59 237 194 123 134 136 124 114 116 123 128 130 131 128 127 129 127 125 125 126 121 115 115 112 103 97 92 87 84 95 104 99 87 82 88 84 72 66 53
201 223 262 311 290 289 194 134 129 133 128 127 124 128 128 130 131 130 130 130 129 129 124 118 121 125 123 124 113 103 95 90 87 80 71 85 103 105 91 87 92 85 76 64
269 272 303 330 347 8 81 116 126 131 132 132 131 135 131 132 132 131 129 130 129 128 127 126 124 120 126 125 112 104 97 86 81 83 75 67 70 81 97 102 105 104 103 90
275 284 336 8 30 64 88 104 111 114 121 132 134 136 135 135 135 134 129 125 131 135 136 135 127 121 125 123 116 107 101 95 88 82 85 75 67 60 80 91 181 155 157 148
238 226 201 255 124 112 117 122 126 121 115 124 134 135 133 133 133 133 131 127 129 130 132 131 129 126 127 130 126 118 108 104 105 103 95 91 86 62 44 54 79 136 154 157
233 189 127 128 107 111 118 123 125 126 130 130 129 132 130 129 130 130 130 135 138 138 136 134 133 133 137 138 131 127 131 134 128 127 130 128 111 98 60 27 48 75 125 168
184 110 96 128 130 119 117 117 112 111 119 127 129 130 127 125 131 134 138 141 138 134 134 136 135 138 141 135 131 131 132 144 146 147 148 145 141 129 120 95 23 0 4 335
283 184 155 126 118 117 120 122 121 123 125 125 131 136 136 137 141 141 137 134 130 131 137 137 137 143 140 137 137 143 144 152 148 145 149 152 151 147 145 153 236 289 314 324
81 101 120 130 136 136 135 135 136 140 140 138 140 142 141 138 136 134 136 139 140 147 151 149 154 162 152 144 142 144 161 184 167 156 152 153 162 174 192 218 249 265 274 283
143 149 148 150 153 153 152 150 149 148 146 145 146 141 135 131 131 136 143 148 149 153 156 158 168 165 157 155 156 162 168 179 165 157 172 185 193 204 215 227 246 259 264 258
192 183 175 168 164 159 154 150 150 150 150 149 144 142 144 148 152 155 151 141 134 138 161 171 169 159 161 165 164 165 170 174 172 184 196 204 212 215 220 234 252 260 272 287
178 171 166 164 162 159 157 156 155 152 149 149 151 154 155 156 155 151 144 144 151 167 193 187 174 167 178 187 171 166 172 180 188 198 207 216 220 222 225 237 248 253 257 262
165 160 157 156 157 157 157 155 153 152 154 153 150 150 153 157 156 153 152 165 184 187 180 171 169 174 184 186 171 167 180 188 195 205 209 213 225 238 241 245 250 252 250 250
163 158 157 159 159 160 159 157 157 159 159 159 160 164 165 164 161 159 160 183 209 187 172 171 171 180 184 178 174 175 186 194 202 211 218 226 234 243 247 251 251 248 248 251
170 165 163 160 159 161 162 160 161 160 160 164 166 164 162 165 168 171 184 192 189 178 172 176 183 192 189 178 176 187 199 208 214 217 223 227 231 240 247 248 248 247 246 247
174 168 165 166 166 162 158 163 165 166 168 171 172 172 173 176 175 177 196 205 179 181 180 191 198 200 195 184 188 201 213 223 227 229 232 230 230 236 245 250 248 246 247 247
172 168 165 159 152 155 165 172 170 172 173 174 177 177 173 173 184 196 187 181 184 185 192 201 203 206 198 194 201 213 223 231 234 237 240 241 239 240 243 246 249 248 248 249
167 159 154 156 164 174 175 167 163 166 169 176 180 181 181 181 183 190 184 184 188 188 200 207 208 207 202 203 210 218 226 233 235 235 237 240 244 245 246 246 245 247 248 249
166 170 175 180 177 171 167 167 173 176 177 180 186 187 186 184 181 177 181 190 191 194 201 205 204 204 207 211 217 221 227 235 240 240 241 242 245 246 248 249 249 246 247 249
154 154 154 160 166 167 169 174 178 182 184 185 187 189 187 186 185 186 188 191 194 199 205 207 206 206 210 216 222 226 230 233 237 239 241 242 243 245 247 247 249 249 248 249